User: anonymous
Location: Unspecified
(0.0000°N, 0.0000°E)
Time: 03:34:32
(UTC+02:00)
Language:

Cosmos 1758 - Orbit

View from above orbital plane
View from above orbital plane
View from above satellite
View from above satellite

Ground track
Ground track

The orbit data is extracted from the following two-line orbital elements,

1 16791U 86046A   14294.41486351  .00004142  00000-0  31701-3 0  1651
2 16791 082.4701 255.5714 0019199 139.7218 220.5433 15.01511249539967
Epoch (UTC): 21 October 2014 09:57:24
Eccentricity: 0.0019199
inclination: 82.4701°
perigee height: 549 km
apogee height: 575 km
right ascension of ascending node: 255.5714°
argument of perigee: 139.7218°
revolutions per day: 15.01511249
mean anomaly at epoch: 220.5433°
orbit number at epoch: 53996

The dashed part of the orbit path shows where the satellite is in the earth's shadow,  

DLR